Location: eljas
(40.1958°N, 6.8661°W)
Time: 09:49:32
(UTC+02:00)

Daily predictions for brighter satellites

Satellite Brightness Start Highest point End
(mag) Time Altitude Azimuth Time Altitude Azimuth Time Altitude Azimuth
Lacrosse 5 rocket 1.2 22:11:16 10° SSW 22:15:00 57° SE 22:18:57 10° NE
deb Chang Zheng 4 3.9 22:14:09 10° NNE 22:18:27 47° E 22:22:39 10° S
Centaur D AC-28 3.6 22:16:00 10° WSW 22:19:23 17° SSW 22:21:55 10° SSE
Meteor 1-19 Rocket 4.3 22:19:02 10° S 22:24:36 64° E 22:30:08 10° NNE
Okean 2 4.1 22:20:48 10° SSE 22:24:36 35° E 22:28:26 10° NNE
Cosmos 1666 4.1 22:22:48 10° NNE 22:26:01 24° ENE 22:29:09 10° SE
Cosmos 1500 3.5 22:23:23 10° NNW 22:27:15 70° W 22:31:07 10° S
Meteor 2-4 Rocket 4.0 22:25:26 10° S 22:31:04 54° E 22:36:49 10° NNE
Aureole 2 Rocket 3.8 22:28:03 10° SSE 22:31:23 25° ESE 22:34:31 10° NE
SJ-11-01 4.3 22:26:52 10° SSE 22:31:29 70° ENE 22:36:09 10° N
Abrixas rocket 3.7 22:30:10 10° NW 22:33:20 33° NNE 22:36:30 10° E
Cosmos 1743 2.6 22:30:52 10° N 22:34:44 80° E 22:38:33 10° S
Cosmos 2333 Rocket 3.2 22:30:01 10° SW 22:35:31 53° WNW 22:41:04 10° NNE
BREEZE-M DEB (TANK) 2.1 22:34:36 10° NW 22:37:30 55° NE 22:39:08 15° ESE
Cosmos 1606 Rocket 3.6 22:33:55 10° N 22:38:24 86° W 22:42:47 10° S
Cosmos 1331 Rocket 4.1 22:33:17 10° NNW 22:38:30 64° ENE 22:43:26 11° SSE
Cosmos 2297 3.8 22:34:32 10° NNW 22:40:16 73° ENE 22:45:45 11° SSE
SPOT 5 3.2 22:40:34 12° SE 22:44:26 43° ENE 22:48:34 10° N
H-2A R/B 2.0 22:40:35 10° SSE 22:44:47 88° WSW 22:49:07 10° NNW
Cosmos 2098 Rocket 4.3 22:45:05 10° NNW 22:48:01 31° W 22:51:29 10° SSW
APEX 4.1 22:47:49 10° N 22:51:34 43° ENE 22:55:05 17° SE
Cosmos 1626 Rocket 4.1 22:50:40 12° SSE 22:54:25 39° E 22:58:33 10° NNE
SeaSat 1 2.4 22:53:45 15° SSE 22:57:55 78° ENE 23:02:52 10° NNW
Lacrosse 5 4.3 22:53:50 10° W 22:58:04 26° NNW 23:02:18 10° NNE
ATLAS 3B R/B 4.3 22:56:52 15° ESE 22:58:55 16° ESE 23:03:18 10° ENE
Tsikada Rocket 4.4 22:53:03 10° SSE 22:59:08 48° E 23:05:14 10° NNE
CZ-4B R/B 3.9 22:55:24 10° NNE 23:00:10 41° E 23:04:30 13° SSE
Cosmos 2251 Rocket 4.3 22:57:40 10° SSW 23:02:52 56° WNW 23:08:09 10° N
Nimbus 7 Rocket 4.4 22:58:06 10° NNE 23:04:06 89° ESE 23:10:01 10° SSW
Atlas Centaur 2 3.8 23:00:42 10° SW 23:07:15 28° SSE 23:12:30 16° ESE
CZ-2C R/B 3.4 23:07:18 10° SW 23:08:38 14° W 23:10:00 10° WNW
ATLAS CENTAUR R/B 3.4 23:04:15 10° WSW 23:08:53 38° NW 23:13:37 10° NNE
COSMOS 2455 3.6 23:04:34 13° SSE 23:09:04 31° ESE 23:14:15 10° NE
BREEZE M DEB (TANK) 2.3 23:06:41 10° WNW 23:09:18 40° N 23:10:24 20° ENE
Cosmos 2285 Rocket 4.1 23:03:16 10° NNW 23:09:36 83° WSW 23:14:59 15° SSE
USA 234 3.3 23:05:50 17° SE 23:11:03 78° NE 23:17:38 10° NW
CZ-4 SHROUD 3.4 23:10:59 20° S 23:12:59 72° W 23:16:09 10° NNW
Cosmos 2228 3.1 23:09:25 10° N 23:13:50 84° W 23:17:14 17° S
Meteor 1-15 Rocket 4.2 23:08:44 10° N 23:14:20 86° W 23:19:10 14° S
Cosmos 2237 Rocket 4.4 23:10:34 10° WSW 23:15:23 29° WNW 23:20:14 10° N
MetOp-A 4.1 23:13:18 19° SSE 23:17:12 74° ENE 23:22:34 10° N
Terra 3.6 23:16:28 14° E 23:18:24 18° ENE 23:21:34 10° NNE
Envisat 3.2 23:16:12 14° S 23:20:34 69° WSW 23:25:40 10° NNW
Cosmos 2278 Rocket 4.1 23:18:08 10° NW 23:22:41 25° WSW 23:27:12 10° SSW
ERS-1 Rocket 4.5 23:18:28 10° SSW 23:22:57 33° W 23:27:27 10° NNW
Cosmos 1464 Rocket 4.4 23:18:48 10° NNW 23:24:50 62° W 23:30:53 10° S
SL-08 RB Rocket 4.3 23:28:45 28° ESE 23:30:36 43° ENE 23:34:55 10° N
YAOGAN 6 2.6 23:29:31 35° SSE 23:30:57 74° ENE 23:34:41 10° N
CZ-4C R/B 4.3 23:30:27 29° ESE 23:31:53 37° ENE 23:35:45 10° N
Cosmos 2369 Rocket 3.4 23:33:18 10° N 23:38:16 30° ENE 23:40:50 21° E
Cosmos 1816 Rocket 4.5 23:36:17 17° S 23:41:19 79° E 23:47:40 10° N
SL-16 R/B 3.7 23:36:07 10° SW 23:41:20 38° WNW 23:46:36 10° N
Cosmos 2034 Rocket 4.4 23:35:39 10° NNW 23:41:56 62° W 23:47:11 15° S
Cosmos 1634 Rocket 4.2 23:39:25 10° N 23:45:26 53° E 23:48:08 32° SE
ARGOS 3.1 23:43:40 31° SSE 23:46:20 77° ENE 23:51:47 10° N
Cosmos 1238 4.3 23:48:08 50° SSW 23:48:52 77° W 23:51:55 10° N
NOAA 11 4.1 23:46:44 33° SSE 23:49:14 75° ENE 23:54:40 10° N
H-2A R/B 2.7 23:48:35 31° ESE 23:50:06 39° ENE 23:54:44 10° N
CARTOSAT-1 4.4 23:49:16 32° E 23:50:06 35° ENE 23:54:02 10° N
Lacrosse 5 rocket 4.0 23:51:31 10° W 23:54:35 21° NNW 23:57:46 10° NNE
